This demonstration page uses our WeatherBlox Daily Observations layout. Learn more.

Left ArrowRight Arrow

38.88101, -77.10428

Hourly Observations for May 1, 2021

Temp ( °F °C ) Dew Point ( °F °C ) Humidity (%) Winds ( mph kmh ) Pressure ( in mb ) Visibility ( mi km ) Precip ( " mm )
12:52 am 00:52 Clear 51 10.6 22 -5.6 32 32 NW 16 26 29.93 1014 10 16 N/A
1:52 am 01:52 Clear 51 10.6 23 -5 33 33 NW 15 24 29.94 1014 10 16 N/A
2:52 am 02:52 Clear 50 10 22 -5.6 33 33 NW 17 28 29.96 1014 10 16 N/A
3:52 am 03:52 Mostly Clear 49 9.4 20 -6.7 32 32 NW 21 33 29.97 1015 10 16 N/A
4:52 am 04:52 Mostly Clear 47 8.3 20 -6.7 34 34 NW 14 22 29.99 1016 10 16 N/A
5:52 am 05:52 Clear 48 8.9 20 -6.7 33 33 NW 13 20 30.01 1016 10 16 N/A
6:52 am 06:52 Sunny 48 8.9 21 -6.1 34 34 NW 12 19 30.03 1017 10 16 N/A
7:52 am 07:52 Sunny 50 10 22 -5.6 33 33 NW 18 30 30.06 1018 10 16 N/A
8:52 am 08:52 Sunny 53 11.7 23 -5 31 31 NW 18 30 30.08 1019 10 16 N/A
9:52 am 09:52 Mostly Sunny 55 12.8 24 -4.4 30 30 NNW 21 33 30.07 1018 10 16 N/A
10:52 am 10:52 Mostly Sunny 59 15 24 -4.4 26 26 NW 15 24 30.07 1018 10 16 N/A
11:52 am 11:52 Mostly Sunny 61 16.1 24 -4.4 24 24 NNW 16 26 30.07 1018 10 16 N/A
12:52 pm 12:52 Partly Cloudy 63 17.2 24 -4.4 23 23 NW 13 20 30.06 1018 10 16 N/A
1:52 pm 13:52 Mostly Sunny 64 17.8 25 -3.9 23 23 WNW 9 15 30.04 1017 10 16 N/A
2:52 pm 14:52 Mostly Sunny 67 19.4 26 -3.3 21 21 NW 12 19 30.02 1017 10 16 N/A
3:52 pm 15:52 Mostly Sunny 68 20 25 -3.9 20 20 NW 10 17 30.00 1016 10 16 N/A
4:52 pm 16:52 Mostly Cloudy 69 20.6 25 -3.9 19 19 W 13 20 29.97 1015 10 16 N/A
5:52 pm 17:52 Mostly Cloudy 69 20.6 25 -3.9 19 19 VRB 6 9 29.96 1015 10 16 N/A
6:52 pm 18:52 Partly Cloudy 67 19.4 25 -3.9 20 20 SSW 9 15 29.94 1014 10 16 N/A
7:52 pm 19:52 Mostly Sunny 63 17.2 38 3.3 40 40 S 9 15 29.93 1014 10 16 N/A
8:52 pm 20:52 Clear 60 15.6 39 3.9 46 46 S 12 19 29.93 1013 10 16 N/A
9:52 pm 21:52 Mostly Clear 59 15 34 1.1 39 39 S 8 13 29.94 1014 10 16 N/A
10:52 pm 22:52 Clear 57 13.9 36 2.2 45 45 S 9 15 29.94 1014 10 16 N/A
11:52 pm 23:52 Clear 58 14.4 38 3.3 48 48 S 13 20 29.91 1013 10 16 N/A

Powered by AerisWeather